Regional Weather Roundup
Issued by NWS Midland/Odessa, TX

Home | Current Version | Previous Version | Text Only | Print | Product List | Glossary On
Versions: 1 2 3 4 5 6 7 8 9 10 11 12 13 14 15 16 17 18 19 20 21 22 23 24 25 26 27 28 29 30 31 32 33 34 35 36 37 38 39 40 41 42 43 44 45 46 47 48 49 50
000
ASUS44 KMAF 201210
RWRMAF
MIDLAND AREA WEATHER ROUNDUP
NATIONAL WEATHER SERVICE MIDLAND TX
600 AM CST SAT JAN 20 2018

...IN SOUTHWEST TEXAS AND SOUTHEAST NEW MEXICO...

CITY           SKY/WX    TMP DP  RH WIND       PRES   REMARKS
ALPINE         CLOUDY    50  22  34 SW9       30.06S
ANDREWS        FAIR      38  21  50 SW9       29.89S WCI  32
ARTESIA        PTCLDY    37  12  35 E3        29.89S
BIG SPRING     CLOUDY    35  33  92 S7        29.93S WCI  29
CARLSBAD       PTCLDY    33  16  49 CALM      29.87F
DRYDEN           N/A    N/A N/A N/A CALM      29.98S
FORT STOCKTON  CLEAR     51  21  30 SW15      29.93R
GUAD PASS      PTCLDY    46  16  30 SW25      29.97F WCI  37
HOBBS          CLEAR     30  10  43 SW6       29.88S WCI  24
LAMESA         PTSUNNY   30  23  74 SW8       29.88F WCI  23
MARFA          CLEAR     26  18  71 CALM        N/A
MIDLAND AIRPK    N/A     37  31  77 S3        29.92R
MIDLAND INTL   CLOUDY    37  30  75 S7        29.91S WCI  32
ODESSA         CLOUDY    37  30  75 SW8       29.91S WCI  31
PECOS          CLOUDY    28  14  55 E5        29.91S WCI  23
PRESIDIO       FAIR      42  23  47 N5        30.02F WCI  39
SEMINOLE       CLOUDY    34  20  57 W6        29.89S WCI  29
SNYDER         CLOUDY    34  33  98 S8        29.90S WCI  27
WINK           CLOUDY    24  17  74 NE3       29.90S
$$
...OTHER STATIONS IN TEXAS...

CITY           SKY/WX    TMP DP  RH WIND       PRES   REMARKS
ABILENE        CLOUDY    42  41  96 S13       29.90F WCI  35
AMARILLO       CLOUDY    32  16  51 SW9       29.78R WCI  24
AUSTIN         CLOUDY    51  51 100 S8        30.03F FOG
BROWNSVILLE    FOG       54  53  97 NE3       30.06F VSB 1/2
CORPUS CHRISTI FOG       51  51 100 CALM      30.06S VSB 1/2
DALLAS FTW     CLOUDY    57  51  80 S22G30    29.96R
DEL RIO        FOG       44  44 100 E8        30.01R VSB 1   WCI  39
EL PASO        MOCLDY    37  19  48 CALM      29.97F
HOUSTON INT    FOG       53  53 100 E5        30.08S VSB 1/4
LUBBOCK        CLOUDY    31  12  45 W9        29.84R WCI  23
SAN ANGELO     CLOUDY    43  39  86 SW12      29.95F WCI  37
SAN ANTONIO    DRZL/FOG  50  49  96 CALM      30.05S VSB 3/4
WACO           CLOUDY    55  52  89 S12G20    30.01F
WICHITA FALLS  CLOUDY    49  46  90 S12       29.79S
$$
...OTHER LOCATIONS IN NEW MEXICO...

CITY           SKY/WX    TMP DP  RH WIND       PRES   REMARKS
ALAMOGORDO     PTCLDY    36  10  35 CALM      29.99F
ALBUQUERQUE    PTCLDY    34  13  41 CALM      29.98S
CANNON AFB     CLEAR     42  14  31 W13       29.87R WCI  35
CLOVIS         CLEAR     42  15  33 W15       29.85S WCI  34
HOLLOMAN AFB   PTCLDY    25   7  46 CALM      30.01S
ROSWELL        PTCLDY    31  13  47 N8        29.88S WCI  23
RUIDOSO        PTCLDY    39   7  26 NW3       30.01S
SANTA FE       CLEAR     27  13  55 N6        29.98S WCI  20
TRUTH OR CONSE PTCLDY    31   9  39 N5        29.98S WCI  26
TUCUMCARI      CLEAR     44  14  29 W12       29.82R WCI  38
$$




USA.gov is the U.S. government's official web portal to all federal, state and local government web resources and services.